sat.trackr.live / text

‹ back to catalog

STARLINK-35965

NORAD 66631 · 2025-271Q

PAYLOAD ACTIVE UNKNOWN

§ Identity

Operator
Country
US
Launch date
2025-11-23
Launch site
AFWTR
Launch vehicle
Mass (kg)
RCS (m²)

Purposes: comms

External: N2YO · Heavens-Above · Gunter

§ Orbital elements

Epoch: 2026-05-24T23:45:59.717664Z

Period
93.85 min
Inclination
53.1595°
Eccentricity
0.0001380
Mean motion
15.34405601 rev/d
Perigee alt
461.7 km
Apogee alt
463.6 km
Semi-major
6,840.8 km
B*
3.7914e-4
RAAN
143.7499°
Arg perigee
104.9159°
Mean anomaly
255.1996°
Rev number
2,926

§ Raw data

STARLINK-359651 66631U 25271Q   26144.99027451  .00012457  00000+0  37914-3 0  99982 66631  53.1595 143.7499 0001380 104.9159 255.1996 15.34405601 29265

JSON: /api/v1/satellites/66631 · /tle

For live sub-satellite position, see the globe view (requires WebGL).

§ Visibility from observer

Set your observer location to see the next 7 days of passes ≥ 10°. The values pass through the URL so the page stays shareable.

No JS? Fill the form by hand. The geolocation button needs JavaScript.